Home > Weather > Post Falls > Past weeks

Flag for USA Past Weather in Post Falls, Idaho, USA — Yesterday and Last 2 Weeks

Now
82 °F

Sunny.


Feels Like: 81 °F
Forecast: 56 / 90 °F
Wind: 5 mph from Southwest

Location: Coeur d'Alene Weather Reporting System

Current Time: Jul 24, 2016 at 7:28:15 PM

Latest Report: Jul 24, 2016 at 6:55 PM


Visibility: 10 mi

Pressure: 29.97 "Hg (27.79 "Hg at 664m altitude)

Humidity: 30%

Dew Point: 48 °F

Location of Post FallsLocation

Past Weather in Post Falls — Graph

°F

Post Falls Temperature Yesterday

Maximum temperature yesterday: 75 °F (at 3:35 PM)
Minimum temperature yesterday: 52 °F (at 1:35 AM)
Average temperature yesterday: 64 °F

High & Low Weather Summary for the Past Weeks

 TemperatureHumidityPressure
High91 °F (Jul 21, 4:35 PM)94% (Jul 12, 1:15 AM)30.18 "Hg (Jul 12, 1:15 AM)
Low45 °F (Jul 10, 5:15 AM)18% (Jul 21, 4:15 PM)29.83 "Hg (Jul 10, 2:15 PM)
Average65 °F57%30.01 "Hg
* Reported Jul 9 6:15 PM — Jul 24 6:15 PM, Post Falls, Weather by CustomWeather, © 2016

Note: Actual official high and low records may vary slightly from our data, if they occured in-between our weather recording intervals... More about our weather records

Advertising

Post Falls Weather History for the Previous 24 Hours

Scroll right to see more
 ConditionsComfort  
Time TempWeatherWind HumidityBarometerVisibility
6:15 PM
Sun, Jul 24
82 °FSunny.5 mph30%29.98 "Hg10 mi
5:55 PM82 °FSunny.5 mph30%29.98 "Hg10 mi
5:35 PM82 °FSunny.3 mph30%29.99 "Hg10 mi
5:15 PM82 °FSunny.No wind32%30.00 "Hg10 mi
4:55 PM84 °FSunny.6 mph31%30.00 "Hg10 mi
4:35 PM82 °FSunny.3 mph32%30.01 "Hg10 mi
4:15 PM82 °FSunny.6 mph32%30.01 "Hg10 mi
3:55 PM82 °FSunny.7 mph32%30.02 "Hg10 mi
3:35 PM84 °FSunny.8 mph31%30.02 "Hg10 mi
3:15 PM82 °FSunny.7 mph35%30.03 "Hg10 mi
2:55 PM82 °FSunny.5 mph35%30.04 "Hg10 mi
2:35 PM82 °FSunny.7 mph35%30.04 "Hg10 mi
2:15 PM82 °FSunny.5 mph32%30.04 "Hg10 mi
1:55 PM82 °FSunny.5 mph32%30.05 "Hg10 mi
1:35 PM81 °FSunny.6 mph32%30.06 "Hg10 mi
1:15 PM81 °FSunny.No wind32%30.06 "Hg10 mi
12:55 PM81 °FSunny.No wind34%30.07 "Hg10 mi
12:35 PM81 °FSunny.5 mph32%30.07 "Hg10 mi
12:15 PM81 °FSunny.No wind32%30.08 "Hg10 mi
11:55 AM79 °FSunny.5 mph34%30.08 "Hg10 mi
11:35 AM79 °FSunny.5 mph34%30.09 "Hg10 mi
11:15 AM77 °FSunny.6 mph39%30.09 "Hg10 mi
10:55 AM75 °FSunny.No wind41%30.10 "Hg10 mi
10:35 AM73 °FSunny.3 mph44%30.10 "Hg10 mi
10:15 AM72 °FSunny.No wind47%30.10 "Hg10 mi
9:55 AM70 °FSunny.3 mph50%30.11 "Hg10 mi
9:35 AM68 °FSunny.No wind53%30.12 "Hg10 mi
9:15 AM68 °FSunny.No wind53%30.12 "Hg10 mi
8:55 AM66 °FSunny.No wind60%30.12 "Hg10 mi
8:15 AM63 °FSunny.No wind68%30.12 "Hg10 mi
7:55 AM63 °FSunny.5 mph64%30.12 "Hg10 mi
7:35 AM63 °FSunny.5 mph64%30.13 "Hg10 mi
7:15 AM61 °FSunny.5 mph68%30.13 "Hg10 mi
6:55 AM59 °FSunny.3 mph77%30.12 "Hg10 mi
6:35 AM57 °FSunny.5 mph77%30.12 "Hg10 mi
6:15 AM57 °FSunny.No wind67%30.12 "Hg10 mi
5:55 AM55 °FClear.3 mph72%30.12 "Hg10 mi
5:35 AM54 °FClear.6 mph72%30.12 "Hg10 mi
5:15 AM54 °FClear.6 mph77%30.11 "Hg10 mi
4:55 AM52 °FClear.6 mph77%30.11 "Hg10 mi
4:35 AM52 °FClear.3 mph77%30.11 "Hg10 mi
4:15 AM52 °FClear.No wind77%30.11 "Hg10 mi
3:55 AM52 °FClear.3 mph72%30.11 "Hg10 mi
3:35 AM52 °FClear.No wind82%30.11 "Hg10 mi
3:15 AM52 °FClear.3 mph82%30.11 "Hg10 mi
2:55 AM52 °FClear.No wind82%30.11 "Hg10 mi
2:35 AM52 °FClear.3 mph82%30.11 "Hg10 mi
2:15 AM54 °FClear.5 mph72%30.11 "Hg10 mi
1:55 AM54 °FClear.5 mph77%30.11 "Hg10 mi
1:35 AM54 °FClear.No wind77%30.11 "Hg10 mi
1:15 AM55 °FClear.3 mph77%30.11 "Hg10 mi
12:55 AM55 °FClear.3 mph77%30.11 "Hg10 mi
12:35 AM55 °FClear.3 mph77%30.11 "Hg10 mi
12:15 AM57 °FClear.5 mph77%30.11 "Hg10 mi
11:55 PM
Sat, Jul 23
57 °FClear.No wind72%30.11 "Hg10 mi
11:35 PM57 °FClear.5 mph72%30.11 "Hg10 mi
11:15 PM61 °FClear.No wind63%30.11 "Hg10 mi
10:55 PM61 °FClear.3 mph72%30.11 "Hg10 mi
10:35 PM63 °FClear.3 mph64%30.11 "Hg10 mi
10:15 PM63 °FClear.3 mph59%30.11 "Hg10 mi
9:55 PM64 °FClear.3 mph56%30.10 "Hg10 mi
9:35 PM64 °FClear.3 mph64%30.10 "Hg10 mi
9:15 PM66 °FSunny.6 mph52%30.10 "Hg10 mi
8:55 PM68 °FSunny.5 mph49%30.09 "Hg10 mi
8:35 PM70 °FSunny.5 mph46%30.09 "Hg10 mi
8:15 PM72 °FSunny.5 mph44%30.08 "Hg10 mi
7:55 PM73 °FSunny.7 mph38%30.08 "Hg10 mi
7:35 PM73 °FSunny.5 mph38%30.08 "Hg10 mi
Weather by CustomWeather, © 2016

See weather overviewHow to use our weather pages